This is the latest recevied weather packets stored in our database for station/object MM1PTT-13. If no packets are shown the sender has not sent any weather packets the latest 10 day(s).
| Time | Temp. | Humidity | Pressure | Rain* | Wind** | Luminosity | Snow |
|---|---|---|---|---|---|---|---|
| 1777644043 | 16.67° C | 63% | 988.5 hPa | 0 mm | - | 266 W/m² | - |
| 1777643742 | 16.11° C | 64% | 988.5 hPa | 0 mm | - | 302 W/m² | - |
| 1777643443 | 16.11° C | 66% | 988.8 hPa | 0 mm | - | 349 W/m² | - |
| 1777643142 | 15.56° C | 65% | 988.5 hPa | 0 mm | - | 294 W/m² | - |
| 1777642843 | 16.11° C | 65% | 988.8 hPa | 0 mm | - | 431 W/m² | - |
| 1777642542 | 15.56° C | 67% | 988.8 hPa | 0 mm | - | 397 W/m² | - |
| 1777642243 | 15.56° C | 64% | 988.8 hPa | 0 mm | - | 292 W/m² | - |
| 1777641942 | 15° C | 66% | 988.5 hPa | 0 mm | - | 196 W/m² | - |
| 1777641643 | 15.56° C | 66% | 988.5 hPa | 0 mm | - | 182 W/m² | - |
| 1777641343 | 15° C | 65% | 988.8 hPa | 0 mm | - | 232 W/m² | - |
| 1777641043 | 15° C | 69% | 988.5 hPa | 0 mm | - | 246 W/m² | - |
| 1777640743 | 15° C | 66% | 989.2 hPa | 0 mm | - | 285 W/m² | - |
| 1777640443 | 15.56° C | 66% | 989.2 hPa | 0 mm | - | 246 W/m² | - |
| 1777640142 | 15.56° C | 67% | 989.2 hPa | 0 mm | - | 224 W/m² | - |
| 1777639843 | 15.56° C | 68% | 989.2 hPa | 0 mm | - | 219 W/m² | - |
| 1777639543 | 15° C | 67% | 989.2 hPa | 0 mm | - | 248 W/m² | - |
| 1777639242 | 15.56° C | 66% | 989.2 hPa | 0 mm | - | 338 W/m² | - |
| 1777638943 | 15° C | 68% | 989.2 hPa | 0 mm | - | 376 W/m² | - |
| 1777638643 | 15° C | 66% | 989.2 hPa | 0 mm | - | 334 W/m² | - |
| 1777638342 | 14.44° C | 66% | 989.2 hPa | 0 mm | - | 278 W/m² | - |
| 1777638042 | 14.44° C | 67% | 989.2 hPa | 0 mm | - | 253 W/m² | - |
| 1777637743 | 13.89° C | 67% | 989.2 hPa | 0 mm | - | 302 W/m² | - |
| 1777637443 | 14.44° C | 68% | 989.5 hPa | 0 mm | - | 352 W/m² | - |
| 1777637142 | 14.44° C | 69% | 989.5 hPa | 0 mm | - | 387 W/m² | - |
| 1777636842 | 14.44° C | 67% | 989.5 hPa | 0 mm | - | 278 W/m² | - |
* Rain latest hour (hover to see other rain measurements)
** Current wind speed in m/s (hover to see current wind gust speed)